Regional Weather Roundup
Issued by NWS

Home | Current Version | Previous Version | Graphics & Text | Print | Product List | Glossary Off
Versions: 1 2 3 4 5 6 7 8 9 10 11 12 13 14 15 16 17 18 19 20 21 22 23 24 25 26 27 28 29 30 31 32 33 34 35 36 37 38 39 40 41 42 43 44 45 46 47 48 49 50

000
ASUS43 KLSX 181007
RWRMO

WEATHER SUMMARY FOR MISSOURI
NATIONAL WEATHER SERVICE SPRINGFIELD MO
500 AM CDT FRI APR 18 2014

NOTE: "FAIR" INDICATES FEW OR NO CLOUDS BELOW 12,000 FEET WITH NO
       SIGNIFICANT WEATHER AND/OR OBSTRUCTIONS TO VISIBILITY.
       CURRENT SKY AND/OR WEATHER CONDITIONS ARE NOT AVAILABLE FOR
       CHILLICOTHE AND FARMINGTON.

MOZ001>031-035>038-043-044-053-054-181100-
...NORTHERN AND WESTERN MISSOURI...

CITY           SKY/WX    TMP DP  RH WIND       PRES   REMARKS
KANSAS CTY INT PTCLDY    37  32  82 CALM      30.27S
KANSAS C DTWN  CLEAR     38  34  85 CALM      30.28S
LEE`S SUMMIT   CLEAR     39  34  82 SE3       30.29R
ST JOSEPH      CLEAR     30  27  88 CALM      30.28S FOG
CHILLICOTHE      N/A     31  28  89 CALM      30.31R
KIRKSVILLE     FOG       31  29  92 CALM      30.30R VSB 1

$$
MOZ066>068-077>081-088>096-101>105-181100-
...SOUTHWEST MISSOURI...

CITY           SKY/WX    TMP DP  RH WIND       PRES   REMARKS
SPRINGFIELD    CLEAR     43  38  82 NE5       30.25R
JOPLIN         MOCLDY    41  39  93 N3        30.26S

$$
MOZ032>034-039>042-045>050-055>058-069>072-181100-
...CENTRAL MISSOURI...

CITY           SKY/WX    TMP DP  RH WIND       PRES   REMARKS
COLUMBIA       CLEAR     40  38  93 N6        30.28S
JEFFERSON CITY CLEAR     44  39  82 NW6       30.28S
ROLLA          CLOUDY    41  38  89 N6        30.25S
SEDALIA        CLEAR     39  37  92 CALM      30.30R FOG
WHITEMAN AFB   CLEAR     33  31  90 CALM      30.29R
OSAGE BEACH    CLOUDY    43  36  75 CALM      30.29R

$$
MOZ051-052-059>065-181100-
...EAST CENTRAL MISSOURI...

CITY           SKY/WX    TMP DP  RH WIND       PRES   REMARKS
ST LOUIS INTL  PTCLDY    47  38  71 N5        30.29R
SPIRIT OF STL  CLEAR     42  38  85 CALM      30.28R
ST CHARLES     CLEAR     45  37  73 CALM      30.28S

$$
MOZ072>076-082>087-097>100-106>115-181100-
...SOUTH CENTRAL AND SOUTHEAST MISSOURI...

CITY           SKY/WX    TMP DP  RH WIND       PRES   REMARKS
CAPE GIRARDEAU CLOUDY    49  46  90 SE3       30.26S
FARMINGTON     CLOUDY    46  41  81 CALM      30.29R
POPLAR BLUFF   LGT RAIN  52  45  77 CALM      30.24F
WEST PLAINS    CLOUDY    48  40  73 N6        30.26R

$$



USA.gov is the U.S. government's official web portal to all federal, state and local government web resources and services.